| time (UTC) | temp C | wind direction | speed KPH | gust KPH | rain 1hr cm | rain 24hr cm | rain mn cm | humidity % | barometer mb |
| 20260906083703 | 19 | 349 | 0.0 | 0.0 | 0.00 | 0.69 | 0.00 | 99 | 1010.6 |
| 20260906080703 | 19 | 349 | 0.0 | 0.0 | 0.00 | 0.69 | 0.00 | 99 | 1010.5 |
| 20260906080203 | 19 | 349 | 0.0 | 0.0 | 0.00 | 0.69 | 0.00 | 99 | 1010.6 |
| 20260906073703 | 19 | 349 | 0.0 | 0.0 | 0.00 | 0.69 | 0.00 | 99 | 1010.5 |
| 20260906070704 | 19 | 349 | 0.0 | 0.0 | 0.00 | 0.69 | 0.00 | 99 | 1010.9 |
| 20260906070203 | 19 | 349 | 0.0 | 0.0 | 0.00 | 0.69 | 0.00 | 99 | 1010.8 |
| 20260906060704 | 20 | 349 | 0.0 | 0.0 | 0.00 | 0.69 | 0.00 | 99 | 1010.8 |
| 20260906060203 | 20 | 349 | 0.0 | 4.8 | 0.00 | 0.69 | 0.00 | 98 | 1010.8 |
| 20260906053704 | 20 | 349 | 0.0 | 3.2 | 0.00 | 0.69 | 0.00 | 98 | 1011.2 |
| 20260906050704 | 20 | 349 | 1.6 | 3.2 | 0.00 | 0.69 | 0.00 | 99 | 1011.6 |
| 20260906050203 | 20 | 349 | 3.2 | 4.8 | 0.00 | 0.69 | 0.00 | 99 | 1011.5 |
| 20260906040704 | 20 | 349 | 0.0 | 0.0 | 0.00 | 0.69 | 0.00 | 98 | 1011.8 |
| 20260906033204 | 20 | 349 | 0.0 | 3.2 | 0.00 | 0.69 | 0.69 | 98 | 1011.9 |
| 20260906020204 | 20 | 344 | 3.2 | 4.8 | 0.00 | 0.69 | 0.69 | 99 | 1010.8 |
| 20260906010204 | 20 | 194 | 1.6 | 4.8 | 0.00 | 0.69 | 0.69 | 99 | 1010.8 |
| 20260906000204 | 21 | 244 | 3.2 | 4.8 | 0.00 | 0.69 | 0.69 | 99 | 1010.6 |
| 20260905233704 | 21 | 244 | 3.2 | 4.8 | 0.00 | 0.69 | 0.69 | 99 | 1010.4 |
| 20260905233204 | 21 | 244 | 1.6 | 4.8 | 0.00 | 0.69 | 0.69 | 99 | 1010.6 |
| 20260905230703 | 21 | 244 | 3.2 | 4.8 | 0.00 | 0.69 | 0.69 | 99 | 1010.1 |
| 20260905220704 | 21 | 244 | 3.2 | 4.8 | 0.00 | 0.69 | 0.69 | 99 | 1010.3 |
| 20260905220203 | 21 | 244 | 3.2 | 4.8 | 0.00 | 0.69 | 0.69 | 99 | 1010.3 |
| 20260905213703 | 21 | 244 | 3.2 | 4.8 | 0.00 | 0.69 | 0.69 | 99 | 1010.4 |
| 20260905213203 | 21 | 244 | 3.2 | 4.8 | 0.00 | 0.69 | 0.69 | 99 | 1010.6 |
| 20260905203703 | 21 | 244 | 0.0 | 3.2 | 0.00 | 0.69 | 0.69 | 99 | 1011.2 |
| 20260905200704 | 21 | 244 | 0.0 | 0.0 | 0.00 | 0.69 | 0.69 | 99 | 1011.4 |
| 20260905200204 | 21 | 244 | 0.0 | 3.2 | 0.00 | 0.69 | 0.69 | 99 | 1011.4 |
| 20260905193204 | 21 | 244 | 3.2 | 3.2 | 0.03 | 0.69 | 0.69 | 99 | 1011.5 |
| 20260905190704 | 21 | 244 | 1.6 | 3.2 | 0.03 | 0.69 | 0.69 | 98 | 1011.3 |
| 20260905183703 | 21 | 244 | 3.2 | 4.8 | 0.00 | 0.66 | 0.66 | 98 | 1012.3 |
| 20260905173704 | 21 | 209 | 0.0 | 4.8 | 0.64 | 0.66 | 0.66 | 94 | 1012.6 |
| 20260905173204 | 21 | 209 | 1.6 | 4.8 | 0.64 | 0.66 | 0.66 | 96 | 1012.5 |
| 20260905170203 | 23 | 177 | 1.6 | 4.8 | 0.13 | 0.13 | 0.13 | 96 | 1012.6 |
| 20260905163703 | 23 | 177 | 3.2 | 4.8 | 0.03 | 0.03 | 0.03 | 92 | 1012.2 |
| 20260905163203 | 23 | 177 | 3.2 | 4.8 | 0.03 | 0.03 | 0.03 | 92 | 1012.2 |
| 20260905160203 | 25 | 195 | 3.2 | 16.1 | 0.00 | 0.00 | 0.00 | 89 | 1012.2 |
| 20260905153203 | 23 | 179 | 3.2 | 9.7 | 0.00 | 0.00 | 0.00 | 94 | 1012.4 |
| 20260905150204 | 22 | 304 | 0.0 | 0.0 | 0.00 | 0.00 | 0.00 | 98 | 1012.4 |
| 20260905143703 | 22 | 304 | 0.0 | 0.0 | 0.00 | 0.00 | 0.00 | 99 | 1012.6 |
| 20260905140204 | 21 | 306 | 0.0 | 0.0 | 0.00 | 0.00 | 0.00 | 99 | 1013.1 |
| 20260905133704 | 21 | 306 | 0.0 | 0.0 | 0.00 | 0.00 | 0.00 | 99 | 1013.2 |
| 20260905130703 | 20 | 306 | 3.2 | 4.8 | 0.00 | 0.00 | 0.00 | 99 | 1013.3 |
| 20260905130203 | 20 | 234 | 0.0 | 0.0 | 0.00 | 0.00 | 0.00 | 99 | 1013.3 |
| 20260905120704 | 19 | 234 | 0.0 | 0.0 | 0.00 | 0.00 | 0.00 | 98 | 1013.2 |
| 20260905103704 | 20 | 234 | 0.0 | 0.0 | 0.00 | 0.00 | 0.00 | 97 | 1012.1 |
| 20260905093703 | 20 | 234 | 0.0 | 0.0 | 0.00 | 0.00 | 0.00 | 96 | 1012.0 |